Tracking 30970 objects as of 3-Jul-2025
HD Live streaming from Space Station
objects crossing your sky now

STARLINK-1560

Track STARLINK-1560 now!
10-day predictions
STARLINK-1560 is classified as:


NORAD ID: 46036
Int'l Code: 2020-055K
Perigee: 553.3 km
Apogee: 555.4 km
Inclination: 53.1 °
Period: 95.6 minutes
Semi major axis: 6925 km
RCS: Unknown
Launch date: August 7, 2020
Source: United States (US)
Launch site: AIR FORCE EASTERN TEST RANGE (AFETR)
Your satellite tracking list
Your tracking list is empty




NASA's NSSDC Master Catalog

Two Line Element Set (TLE):
1 46036U 20055K   25183.67110608 -.00000746  00000-0 -31226-4 0  9996
2 46036  53.0539 168.9925 0001468  95.2093 264.9063 15.06395565271211
Source of the keplerian elements: AFSPC